Location: *
(51.1454°S, 108.4319°W)
Time: 12:41:53
(UTC+00:00)

Daily predictions for brighter satellites

Satellite Brightness Start Highest point End
(mag) Time Altitude Azimuth Time Altitude Azimuth Time Altitude Azimuth
Cosmos 1461 4.4 12:13:46 28° NE 12:13:46 28° NE 12:15:42 10° NE
NOSS 3-1 (A) 3.3 12:12:32 66° NW 12:12:32 66° NW 12:17:56 10° NNE
Cosmos 1980 Rocket 2.7 12:08:55 19° N 12:12:54 58° ENE 12:18:26 10° SE
Cosmos 2369 3.6 12:14:47 66° NNW 12:15:39 88° WSW 12:21:26 10° SSE
Aureole 3 Rocket 3.6 12:16:41 49° ENE 12:16:41 49° ENE 12:20:19 10° NNE
NOSS 2-3 (C) 4.4 12:16:05 64° WNW 12:16:34 66° NW 12:22:07 10° NNE
Cosmos 1763 Rocket 3.8 12:15:25 25° N 12:18:33 68° ENE 12:23:50 10° SSE
PAYLOAD B 4.5 12:16:33 10° N 12:20:57 51° NNW 12:20:57 51° NNW
Okean O Rocket 2.1 12:18:56 10° NNE 12:22:23 53° N 12:22:23 53° N
Cosmos 1898 Rocket 4.0 12:25:05 44° NNW 12:25:05 44° NNW 12:29:02 10° N
Cosmos 2026 Rocket 4.0 12:18:21 10° N 12:24:31 78° E 12:30:52 10° SSE
USA 234 3.2 12:19:16 10° ENE 12:25:54 88° NNW 12:28:09 46° WSW
ATLAS 2AS CENTAUR R/B 3.8 12:29:49 23° SSW 12:31:53 28° S 12:37:29 10° ESE
Cosmos 468 Rocket 3.9 12:30:08 40° NNW 12:32:08 85° WSW 12:37:26 10° SSE
Cosmos 2278 3.6 12:32:06 26° NNW 12:35:27 89° WSW 12:41:14 10° SSE
Radarsat Rocket 4.2 12:29:00 10° N 12:36:08 63° WNW 12:40:31 22° SSW
Cosmos 1092 Rocket 3.9 12:31:10 10° NNW 12:37:22 68° WSW 12:43:37 10° S
SL-16 R/B 4.1 12:32:47 10° NNE 12:37:40 30° ENE 12:42:36 10° SE
Cosmos 1697 Rocket 2.7 12:39:20 51° W 12:40:18 58° SW 12:45:58 10° SSE
Cosmos 2278 Rocket 4.5 12:38:30 10° S 12:41:37 15° SSE 12:44:43 10° ESE
Cosmos 540 Rocket 4.1 12:37:02 10° N 12:42:08 57° ENE 12:47:16 10° SSE
Timation 1 Rocket 4.4 12:42:30 45° WSW 12:43:51 54° WNW 12:49:42 10° N
CZ-4B R/B 3.3 12:41:04 10° N 12:46:33 53° W 12:48:57 32° SW
Cosmos 841 Rocket 3.9 12:42:08 10° N 12:47:22 66° ENE 12:52:42 10° SSE
Cosmos 372 Rocket 3.9 12:45:28 29° SSW 12:48:12 88° ESE 12:53:21 10° NNE
SMAP 3.0 12:43:37 10° N 12:48:18 66° WNW 12:50:05 37° SSW
ADEOS Rocket 3.6 12:43:49 10° SSE 12:49:15 51° E 12:54:44 10° N
Nadezhda 4 Rocket 4.4 12:49:48 38° WSW 12:49:55 39° WSW 12:55:45 10° S
Cosmos 2150 Rocket 4.2 12:49:31 18° SSW 12:53:39 73° ESE 12:59:00 10° NNE
Cosmos 1656 4.4 12:53:57 32° SW 12:53:57 32° SW 12:59:07 10° SSE
Cosmos 1939 Rocket 4.3 12:50:11 10° NE 12:54:01 40° ESE 12:57:58 10° S
Cosmos 1125 Rocket 4.3 12:50:08 13° SSW 12:54:44 52° ESE 12:59:53 10° NE
Cosmos 1937 Rocket 3.8 12:55:10 41° W 12:55:27 42° WNW 13:00:18 10° N
Cosmos 1241 Rocket 4.5 12:51:08 16° NW 12:56:38 81° SW 13:03:11 10° SE
CZ-4 R/B 2.9 12:52:59 10° NE 12:56:55 38° ESE 13:00:55 10° S
Cosmos 2228 3.5 12:53:09 10° S 12:57:30 62° ESE 13:01:46 10° NNE
Okean-O 3.4 12:53:33 10° NE 12:57:54 52° ESE 13:02:18 10° S
Meteor 2-13 Rocket 4.4 12:53:25 10° NNW 12:59:31 62° WSW 13:05:43 10° S
Cosmos 1655 Rocket 4.4 12:53:58 10° N 13:00:10 66° E 13:06:25 10° SSE
Cosmos 1953 2.9 13:02:53 39° WNW 13:02:53 39° WNW 13:06:01 10° NNW
Cosmos 1626 4.3 13:00:06 10° NNE 13:03:23 29° E 13:06:43 10° SSE
Lacrosse 5 rocket 1.8 13:04:56 38° SSW 13:05:27 40° SSW 13:09:23 10° ESE
Cosmos 1689 Rocket 2.0 13:02:35 10° SSE 13:05:41 87° WSW 13:08:45 10° NNW
Cosmos 1908 3.1 13:06:55 23° SSW 13:09:16 75° W 13:13:08 10° N
Cosmos 2227 4.4 13:06:38 29° SW 13:09:18 51° WNW 13:14:46 10° N
Cosmos 1025 Rocket 3.4 13:09:06 36° WNW 13:10:00 40° WSW 13:14:10 10° S
ASTEX 1 3.3 13:05:25 10° N 13:10:22 87° W 13:15:25 10° S
CZ-2D R/B 4.3 13:06:56 10° NE 13:10:43 47° ESE 13:14:34 10° S
Meteor 1-16 Rocket 4.3 13:06:19 10° SSW 13:12:04 55° W 13:17:36 10° N
Cosmos 2360 4.4 13:09:42 23° WNW 13:13:03 48° SW 13:18:39 10° SSE
BREEZE-M DEB (TANK) 3.7 13:12:48 27° WNW 13:14:26 38° NNW 13:23:14 10° NE
YAOGAN 6 3.3 13:11:09 10° NNW 13:13:59 34° WNW 13:13:59 34° WNW
Cosmos 1300 3.9 13:11:10 10° S 13:14:56 44° ESE 13:18:39 10° NNE
COSMO-SKYMED 1 3.4 13:11:27 10° SSE 13:15:50 55° E 13:20:09 10° N
Meteor 2-5 Rocket 4.3 13:10:45 10° N 13:16:15 59° E 13:21:46 10° SSE
Meteor 2-8 Rocket 4.4 13:10:40 10° SSW 13:16:45 64° W 13:22:49 10° N
H-2A R/B 4.1 13:13:48 10° S 13:14:57 15° SSW 13:14:57 15° SSW
Cosmos 2322 Rocket 3.2 13:12:13 10° N 13:17:42 49° ENE 13:23:13 10° SE
IRS-1C Rocket 4.0 13:13:08 10° N 13:18:25 69° WNW 13:23:46 10° SSW
Cosmos 2315 Rocket 4.5 13:13:22 10° S 13:19:42 65° ESE 13:25:54 10° NNE
Cosmos 2292 Rocket 4.5 13:13:23 10° N 13:19:56 72° E 13:24:51 10° SSE
Cosmos 1553 Rocket 4.2 13:16:51 10° SSW 13:23:08 53° W 13:29:19 10° NNW
Aureole 3 3.5 13:18:17 10° SSW 13:23:18 68° W 13:27:11 10° N
ATLAS CENTAUR R/B 2.4 13:22:50 17° SSW 13:26:22 52° SE 13:31:08 10° ENE
Cosmos 2263 Rocket 2.7 13:25:56 21° SW 13:29:22 41° WNW 13:34:41 10° N
YAOGAN 1 3.0 13:25:24 10° NNE 13:29:44 65° ESE 13:34:08 10° S
Cosmos 1536 Rocket 4.2 13:26:40 10° NW 13:30:36 32° WSW 13:34:37 10° S
Cosmos 1356 Rocket 3.5 13:27:35 10° S 13:31:48 82° E 13:36:00 10° NNE
USA 267 3.3 13:25:25 10° ESE 13:32:05 89° SW 13:38:42 10° WNW
Cosmos 1726 4.1 13:34:43 14° WNW 13:34:43 14° WNW 13:35:35 10° NW
Cosmos 2058 Rocket 3.2 13:30:39 10° S 13:35:09 77° E 13:39:38 10° NNE
S3M 4.0 13:30:21 10° SSW 13:36:24 56° W 13:42:22 10° NNW
Cosmos 2298 Rocket 4.2 13:32:40 14° SW 13:37:08 51° WNW 13:42:16 10° N
Envisat 3.9 13:33:03 10° NNW 13:37:23 27° W 13:40:42 15° SW
Cosmos 2285 Rocket 4.3 13:32:31 10° SSW 13:38:38 48° WNW 13:44:47 10° N
Cosmos 1674 3.0 13:38:08 10° NNW 13:41:46 43° WSW 13:45:29 10° S
Helios 1A Rocket 3.6 13:38:15 10° NNW 13:42:02 34° W 13:45:22 13° SW
In-Cosmos 22 4.4 13:36:58 10° NW 13:42:11 42° WSW 13:47:21 10° S
Cosmos 1606 Rocket 3.8 13:39:20 10° SSW 13:43:35 47° W 13:47:46 10° NNW
NOAA 11 4.3 13:40:17 10° N 13:45:45 57° W 13:51:17 10° SSW
Cosmos 883 Rocket 4.5 13:40:53 10° SSW 13:47:11 72° W 13:53:21 10° N
Cosmos 1943 Rocket 4.4 13:46:26 10° S 13:47:41 11° SSE 13:48:57 10° SSE
ATLAS 5 CENTAUR R/B 3.2 13:41:10 10° NNW 13:48:13 64° NE 13:54:38 10° SE
Cosmos 1844 4.1 13:42:37 10° SSW 13:48:16 65° SE 13:53:56 10° NE
Cosmos 2360 Rocket 3.4 13:43:30 10° N 13:48:53 46° ENE 13:54:18 10° SE
USA 116 4.5 13:46:43 10° SSE 13:49:49 44° E 13:52:57 10° N
Cosmos 2208 Rocket 4.2 13:46:29 10° NW 13:51:32 48° WSW 13:56:39 10° SSE
USA 186 4.1 13:51:15 10° ENE 13:53:12 18° ESE 13:55:14 10° SSE
H-2A R/B 2.8 13:49:21 10° NE 13:54:10 52° ESE 13:59:08 10° S
Cosmos 1814 Rocket 4.2 13:49:16 10° NW 13:54:27 50° WSW 13:59:44 10° SSE
CZ-4C R/B 3.7 13:49:50 14° SW 13:54:28 27° S 13:59:29 10° SE
Cosmos 1980 Rocket 2.9 13:52:08 10° WNW 13:57:14 33° SW 14:02:21 10° SSE
Okean O Rocket 3.6 13:59:01 10° WNW 13:59:50 11° W 13:59:50 11° W
SKYMED 2 3.7 13:59:33 10° S 14:03:53 54° WSW 14:08:10 10° NNW
Cosmos 1844 Rocket 2.7 14:00:40 10° SSW 14:06:26 84° WNW 14:12:09 10° NNE
Cosmos 1437 3.9 14:04:29 10° WNW 14:06:56 21° WSW 14:09:25 10° SSW
Cosmos 2084 3.5 14:05:17 12° SW 14:09:20 75° NW 14:13:38 10° NE
USA 234 4.1 14:03:29 10° NNE 14:09:26 36° NW 14:15:26 10° WSW
Cosmos 1726 Rocket 4.3 14:06:51 10° SSW 14:10:48 32° W 14:14:41 10° NNW
CZ-2C R/B 3.3 14:05:59 10° NNE 14:11:09 79° ESE 14:16:43 10° SSW
Okean 1-7 Rocket 3.6 14:09:58 10° NNW 14:14:25 65° WSW 14:18:59 10° S
Resurs 01 Rocket 4.1 14:12:17 10° ENE 14:15:24 19° ESE 14:18:32 10° SSE
CSL-04 Rocket 3.8 14:12:33 10° N 14:17:58 67° WNW 14:23:33 10° SSW
Cosmos 1812 Rocket 4.1 14:13:24 10° S 14:17:59 65° ESE 14:22:28 10° NNE
FREGAT/IRIS 4.2 14:15:38 10° NE 14:18:05 31° ESE 14:20:35 10° S
Ariane Rocket 3.6 14:15:52 10° NNE 14:20:53 61° ESE 14:26:00 10° S
SL-16 R/B 2.3 14:15:52 10° NW 14:21:29 57° SW 14:27:09 10° SSE
CSL-04 Debris 4.3 14:18:11 10° N 14:23:32 58° WNW 14:28:57 10° SSW
Cosmos 540 Rocket 4.3 14:19:34 10° WNW 14:24:05 29° SW 14:28:38 10° S
ATLAS 2AS CENTAUR R/B 3.3 14:17:57 10° SW 14:24:12 49° SSE 14:30:54 10° ENE
Cosmos 1697 Rocket 4.2 14:21:44 10° WSW 14:25:33 18° SSW 14:29:25 10° SSE
Cosmos 1602 Rocket 4.2 14:21:40 10° N 14:26:01 62° E 14:30:23 10° SSE
Cosmos 2278 Rocket 3.3 14:21:55 10° SSW 14:27:22 41° SE 14:32:45 10° ENE
Cosmos 1939 Rocket 4.1 14:25:41 10° NNW 14:29:05 25° W 14:32:34 10° SW
Meteor 2-14 Rocket 4.5 14:23:27 10° NNW 14:29:34 84° W 14:35:48 10° S
Cosmos 841 Rocket 4.5 14:25:17 10° WNW 14:29:44 26° SW 14:34:15 10° S
Cosmos 2333 Rocket 3.9 14:24:50 10° N 14:30:07 40° ENE 14:35:25 10° SE
CZ-4 R/B 2.5 14:28:22 10° NNW 14:32:01 27° W 14:35:43 10° SW
ADEOS Rocket 3.5 14:29:49 10° S 14:34:38 30° WSW 14:39:25 10° WNW
Okean-O 3.9 14:31:10 10° NW 14:34:40 22° W 14:38:12 10° SW
HJ-1C 3.8 14:31:43 10° N 14:34:58 45° W 14:38:16 10° SSW
Cosmos 1125 Rocket 4.5 14:32:03 10° SW 14:36:33 28° W 14:41:00 10° NNW
COSMOS 2455 4.4 14:32:38 10° SSW 14:37:28 24° SSE 14:42:17 10° ESE
